^^
Datos históricos de la estación: Murcia-Puente Tocinos
Diario Informe para Abril 27, 2019 Unidades:  Inglés    Métrico   Ambas
Diario Semanal Mensual Anual Configurable
  Máximo: Mínimo: Media:
Temperatura: 73.6 °F 55.8 °F 64.2 °F
Punto de rocio: 51.3 °F 41.7 °F 46 °F
Humedad: 75% 37% 53%
Velocidad viento: 9.7mph 0mph 5mph
Racha viento: 17.3mph - -
Viento- - SSE
Presión: 30.3 in 30.2 in -
Precipitación: 0 in    
Historical Graphs
 
 
Tabla de datos para Abril 27, 2019
Hora Temperatura Punto de rocio Presión Viento Velocidad viento Racha viento Humedad Intensidad lluvia(por hora) Nubes
00:00 61.7 °F 49.5 °F 30.2 in NE 2 mph 3 mph 64% 0 in CLR
00:05 61.5 °F 49.6 °F 30.2 in NE 1.8 mph 3.5 mph 65% 0 in CLR
00:10 61.3 °F 49.5 °F 30.2 in NE 1.8 mph 2.3 mph 65% 0 in CLR
00:15 61 °F 49.5 °F 30.2 in North 1.8 mph 2.3 mph 66% 0 in CLR
00:20 60.8 °F 49.5 °F 30.2 in North 1.4 mph   66% 0 in CLR
00:25 60.4 °F 49.5 °F 30.2 in North 1.4 mph 2.3 mph 67% 0 in CLR
00:30 60.3 °F 49.3 °F 30.2 in North 1.4 mph   67% 0 in CLR
00:35 60.1 °F 49.5 °F 30.2 in North 1.4 mph 2.4 mph 68% 0 in CLR
00:40 59.7 °F 49.5 °F 30.2 in North 1.4 mph 2.3 mph 69% 0 in CLR
00:45 59.5 °F 49.5 °F 30.2 in North 1.4 mph   69% 0 in CLR
00:50 59.5 °F 49.5 °F 30.2 in Calm     69% 0 in CLR
00:55 59.4 °F 49.6 °F 30.2 in Calm     70% 0 in CLR
01:00 59.4 °F 50 °F 30.2 in Calm   4 mph 71% 0 in CLR
01:05 59.4 °F 50.4 °F 30.2 in Calm   1.2 mph 72% 0 in CLR
01:10 59.4 °F 50.4 °F 30.2 in West 1.8 mph   72% 0 in CLR
01:15 59.4 °F 50.4 °F 30.2 in West 1.8 mph 3.5 mph 72% 0 in CLR
01:20 59.2 °F 50.5 °F 30.2 in West 2 mph 4.6 mph 73% 0 in CLR
01:25 59.2 °F 50.9 °F 30.2 in West 2 mph 4.6 mph 74% 0 in CLR
01:30 59.2 °F 51.3 °F 30.2 in West 3.1 mph 4.6 mph 75% 0 in CLR
01:35 59 °F 51.1 °F 30.2 in West 3.1 mph 3.5 mph 75% 0 in CLR
01:40 58.8 °F 50.9 °F 30.2 in WSW 2.9 mph 3.5 mph 75% 0 in CLR
01:45 59 °F 51.1 °F 30.2 in ESE 2.9 mph 5.2 mph 75% 0 in CLR
01:50 58.8 °F 50.5 °F 30.2 in SSE 2.4 mph 5.8 mph 74% 0 in CLR
01:55 58.5 °F 49.8 °F 30.2 in SSE 2.4 mph 4.6 mph 73% 0 in CLR
02:00 58.5 °F 49.8 °F 30.2 in SSE 3 mph 6 mph 73% 0 in CLR
02:05 58.8 °F 50.2 °F 30.2 in SW 3.6 mph 5.8 mph 73% 0 in CLR
02:10 59 °F 50.4 °F 30.2 in SW 3.6 mph 4.6 mph 73% 0 in CLR
02:15 59.2 °F 50.5 °F 30.2 in SW 3.6 mph 4.6 mph 73% 0 in CLR
02:20 59.4 °F 50.7 °F 30.2 in WSW 2.4 mph 4.7 mph 73% 0 in CLR
02:25 59.4 °F 50.7 °F 30.2 in SW 2.4 mph 4.6 mph 73% 0 in CLR
02:30 59.5 °F 50.9 °F 30.2 in SW 3.1 mph 5.2 mph 73% 0 in CLR
02:35 59.5 °F 50.9 °F 30.2 in SW 3.1 mph 4.6 mph 73% 0 in CLR
02:40 59.5 °F 50.9 °F 30.2 in SSW 2.4 mph 4 mph 73% 0 in CLR
02:45 59.4 °F 50.4 °F 30.2 in South 2.4 mph 4.6 mph 72% 0 in CLR
02:50 58.8 °F 49.5 °F 30.2 in SSE 2.9 mph 5.8 mph 71% 0 in CLR
02:55 58.5 °F 49.1 °F 30.2 in South 2.9 mph 6.9 mph 71% 0 in CLR
03:00 58.3 °F 48.6 °F 30.2 in South 5 mph 8 mph 70% 0 in CLR
03:05 57.9 °F 48.2 °F 30.2 in SSW 4.7 mph 5.8 mph 70% 0 in CLR
03:10 57.9 °F 48.2 °F 30.2 in SSW 4.7 mph 6.9 mph 70% 0 in CLR
03:15 57.9 °F 48.2 °F 30.2 in SSW 4.7 mph 6.9 mph 70% 0 in CLR
03:20 57.9 °F 48.2 °F 30.2 in SSE 5.4 mph 8.1 mph 70% 0 in CLR
03:25 57.6 °F 47.1 °F 30.2 in South 5.4 mph 8.1 mph 68% 0 in CLR
03:30 57.6 °F 46.8 °F 30.2 in SSW 6.2 mph 10.4 mph 67% 0 in CLR
03:35 57.4 °F 46 °F 30.2 in SSW 6.2 mph 9.2 mph 66% 0 in CLR
03:40 57.4 °F 45.7 °F 30.2 in SSW 6.9 mph 8.1 mph 65% 0 in CLR
03:45 57.6 °F 45.5 °F 30.2 in SSW 6.9 mph 9.2 mph 64% 0 in CLR
03:50 57.7 °F 45.1 °F 30.2 in SSW 5.4 mph 8.1 mph 63% 0 in CLR
03:55 57.9 °F 44.4 °F 30.2 in SSW 5.4 mph 6.9 mph 61% 0 in CLR
04:00 58.3 °F 44.4 °F 30.2 in SSW 5 mph 8 mph 60% 0 in CLR
04:05 58.5 °F 44.2 °F 30.2 in SSW 5.2 mph 6.9 mph 59% 0 in CLR
04:10 58.5 °F 43.7 °F 30.2 in SW 4.7 mph 5.9 mph 58% 0 in CLR
04:15 58.5 °F 43.7 °F 30.2 in SSW 4.7 mph 5.8 mph 58% 0 in CLR
04:20 58.5 °F 43.7 °F 30.2 in South 3.6 mph 4.7 mph 58% 0 in CLR
04:25 58.3 °F 44.1 °F 30.2 in SE 3.6 mph 10.4 mph 59% 0 in CLR
04:30 57.7 °F 43.9 °F 30.2 in South 5.4 mph 10.4 mph 60% 0 in CLR
04:35 57.6 °F 43.3 °F 30.2 in South 5.4 mph 13.8 mph 59% 0 in CLR
04:40 57.6 °F 43.3 °F 30.2 in SW 7.6 mph 10.4 mph 59% 0 in CLR
04:45 57.6 °F 43 °F 30.2 in South 7.6 mph 10.4 mph 58% 0 in CLR
04:50 57.7 °F 42.6 °F 30.2 in SW 6.2 mph 8.1 mph 57% 0 in CLR
04:55 57.9 °F 42.8 °F 30.2 in SSW 6.2 mph 6.9 mph 57% 0 in CLR
05:00 57.9 °F 42.4 °F 30.2 in SSW 6 mph 9 mph 56% 0 in CLR
05:05 58.3 °F 42.3 °F 30.2 in SW 5.4 mph 6.9 mph 55% 0 in CLR
05:10 58.3 °F 42.3 °F 30.2 in SW 5.2 mph 4.6 mph 55% 0 in CLR
05:15 58.5 °F 42.3 °F 30.2 in WSW 5.2 mph 4.6 mph 55% 0 in CLR
05:20 58.3 °F 42.3 °F 30.2 in WSW 3.6 mph 2.3 mph 55% 0 in CLR
05:25 58.3 °F 42.6 °F 30.2 in WSW 3.6 mph 3.6 mph 56% 0 in CLR
05:30 57.9 °F 42.3 °F 30.2 in WSW 2.4 mph 6.9 mph 56% 0 in CLR
05:35 57.7 °F 42.6 °F 30.2 in West 2.4 mph 4.6 mph 57% 0 in CLR
05:40 57.6 °F 42.1 °F 30.2 in SW 3.6 mph 4.6 mph 56% 0 in CLR
05:45 57.6 °F 42.4 °F 30.2 in West 3.6 mph 4.6 mph 57% 0 in CLR
05:50 57.2 °F 42.1 °F 30.2 in SW 3.1 mph 6.9 mph 57% 0 in CLR
05:55 57 °F 41.9 °F 30.2 in West 3.1 mph 5.8 mph 57% 0 in CLR
06:00 57 °F 42.4 °F 30.2 in WSW 5 mph 6 mph 58% 0 in CLR
06:05 57 °F 41.9 °F 30.2 in SW 4 mph 6.9 mph 57% 0 in CLR
06:10 57.2 °F 42.1 °F 30.2 in WSW 4.3 mph 4.6 mph 57% 0 in CLR
06:15 57 °F 41.9 °F 30.2 in WSW 4.3 mph 6.9 mph 57% 0 in CLR
06:20 57.4 °F 41.7 °F 30.2 in West 4.3 mph 6.9 mph 56% 0 in CLR
06:25 57.4 °F 41.7 °F 30.2 in WSW 4.3 mph 4.6 mph 56% 0 in CLR
06:30 57.2 °F 42.1 °F 30.2 in WSW 3.6 mph 4.7 mph 57% 0 in CLR
06:35 57 °F 41.9 °F 30.2 in SW 3.6 mph 4.6 mph 57% 0 in CLR
06:40 56.8 °F 42.3 °F 30.2 in West 3.6 mph 5.8 mph 58% 0 in CLR
06:45 56.5 °F 41.9 °F 30.2 in WSW 3.6 mph 5.8 mph 58% 0 in CLR
06:50 56.5 °F 41.9 °F 30.2 in WSW 3.6 mph 5.8 mph 58% 0 in CLR
06:55 56.5 °F 41.9 °F 30.2 in WSW 3.6 mph 4 mph 58% 0 in CLR
07:00 56.5 °F 41.9 °F 30.2 in WSW 2 mph 5 mph 58% 0 in CLR
07:05 56.3 °F 42.1 °F 30.2 in West 2.9 mph 3.5 mph 59% 0 in CLR
07:10 56.1 °F 42.4 °F 30.2 in West 2.4 mph 4.6 mph 60% 0 in CLR
07:15 55.9 °F 42.3 °F 30.2 in SSE 2.4 mph 4.6 mph 60% 0 in CLR
07:20 55.8 °F 42.4 °F 30.2 in SSE 2 mph 2.4 mph 61% 0 in CLR
07:25 55.8 °F 42.4 °F 30.2 in West 2 mph 3.5 mph 61% 0 in CLR
07:30 55.8 °F 42.4 °F 30.2 in West 2 mph 3.5 mph 61% 0 in CLR
07:35 55.9 °F 42.3 °F 30.2 in South 2 mph 3.5 mph 60% 0 in CLR
07:40 56.1 °F 42.4 °F 30.2 in South 2.4 mph 2.4 mph 60% 0 in CLR
07:45 56.3 °F 42.6 °F 30.2 in South 2.4 mph 4.6 mph 60% 0 in CLR
07:50 56.7 °F 42.4 °F 30.2 in SW 2.4 mph 5.8 mph 59% 0 in CLR
07:55 56.8 °F 42.6 °F 30.2 in SW 2.4 mph 4.6 mph 59% 0 in CLR
08:00 57 °F 42.8 °F 30.2 in SW 3 mph 5 mph 59% 0 in CLR
08:05 57.4 °F 42.6 °F 30.2 in WSW 3.1 mph 4.6 mph 58% 0 in CLR
08:10 57.6 °F 42.4 °F 30.2 in SW 2.9 mph 4.6 mph 57% 0 in CLR
08:15 57.7 °F 42.6 °F 30.2 in SW 2.9 mph 4.6 mph 57% 0 in CLR
08:20 57.9 °F 42.3 °F 30.2 in WSW 2.4 mph 4.6 mph 56% 0 in CLR
08:25 58.3 °F 42.6 °F 30.2 in WSW 2.4 mph 4.6 mph 56% 0 in CLR
08:30 58.5 °F 42.3 °F 30.2 in SW 2.9 mph 5.8 mph 55% 0 in CLR
08:35 58.6 °F 42.4 °F 30.3 in SW 2.9 mph 5.8 mph 55% 0 in CLR
08:40 58.6 °F 42.1 °F 30.3 in WSW 3.6 mph 5.8 mph 54% 0 in CLR
08:45 58.8 °F 42.3 °F 30.3 in WSW 3.6 mph 5.8 mph 54% 0 in CLR
08:50 59.2 °F 42.4 °F 30.3 in West 3.1 mph 4.6 mph 54% 0 in CLR
08:55 59.4 °F 42.6 °F 30.3 in South 3.1 mph 4.6 mph 54% 0 in CLR
09:00 59.7 °F 42.4 °F 30.3 in SSW 2 mph 6 mph 53% 0 in CLR
09:05 60.1 °F 43 °F 30.3 in SSW 2.9 mph 5.8 mph 53% 0 in CLR
09:10 60.3 °F 42.6 °F 30.3 in NW 3.6 mph 5.8 mph 52% 0 in CLR
09:15 60.4 °F 42.3 °F 30.3 in West 3.6 mph 5.8 mph 51% 0 in CLR
09:20 60.4 °F 41.7 °F 30.3 in WSW 5.2 mph 6.9 mph 50% 0 in CLR
09:25 60.6 °F 42.4 °F 30.3 in WSW 5.2 mph 5.9 mph 51% 0 in CLR
09:30 61 °F 41.7 °F 30.3 in WSW 4.3 mph 7.4 mph 49% 0 in CLR
09:35 61 °F 41.7 °F 30.3 in SSW 4.3 mph 9.2 mph 49% 0 in CLR
09:40 61.2 °F 41.7 °F 30.3 in SSW 5.2 mph 5.8 mph 49% 0 in CLR
09:45 61.3 °F 42.4 °F 30.3 in West 5.2 mph 6.9 mph 50% 0 in CLR
09:50 61.7 °F 42.3 °F 30.3 in West 4 mph 5.8 mph 49% 0 in CLR
09:55 61.9 °F 42.4 °F 30.3 in SW 4 mph 5.8 mph 49% 0 in CLR
10:00 62.1 °F 42.1 °F 30.3 in WSW 5 mph 6 mph 48% 0 in CLR
10:05 62.1 °F 42.1 °F 30.3 in SW 4 mph 5.2 mph 48% 0 in CLR
10:10 62.4 °F 42.4 °F 30.3 in West 3.1 mph 4.6 mph 48% 0 in CLR
10:15 62.8 °F 42.3 °F 30.3 in WNW 3.1 mph 6.9 mph 47% 0 in CLR
10:20 63 °F 43 °F 30.3 in ESE 4 mph 4.6 mph 48% 0 in CLR
10:25 63.5 °F 42.3 °F 30.3 in WNW 4 mph 4.6 mph 46% 0 in CLR
10:30 63.9 °F 42.1 °F 30.3 in West 2.4 mph 5.8 mph 45% 0 in CLR
10:35 63.9 °F 42.6 °F 30.3 in WNW 2.4 mph 4.6 mph 46% 0 in CLR
10:40 64 °F 42.8 °F 30.3 in WNW 2.4 mph 4.6 mph 46% 0 in CLR
10:45 64.4 °F 42.6 °F 30.3 in SW 2.4 mph 6.9 mph 45% 0 in CLR
10:50 64.4 °F 42.6 °F 30.3 in South 3.1 mph 4.6 mph 45% 0 in CLR
10:55 64.8 °F 42.3 °F 30.3 in East 3.1 mph 4.6 mph 44% 0 in CLR
11:00 65.1 °F 42.6 °F 30.3 in SE 2 mph 3 mph 44% 0 in CLR
11:05 65.8 °F 43.3 °F 30.3 in WSW 2.4 mph 3.6 mph 44% 0 in CLR
11:10 66 °F 43.5 °F 30.3 in NW 2 mph 4.6 mph 44% 0 in CLR
11:15 65.8 °F 42.6 °F 30.3 in NW 2 mph 5.8 mph 43% 0 in CLR
11:20 66 °F 43 °F 30.3 in NNE 3.1 mph 2.3 mph 43% 0 in CLR
11:25 66.7 °F 43 °F 30.3 in SSW 3.1 mph 4.6 mph 42% 0 in CLR
11:30 66.7 °F 43 °F 30.3 in ESE 2.4 mph 4.6 mph 42% 0 in CLR
11:35 67.1 °F 43.2 °F 30.3 in East 2.4 mph 2.4 mph 42% 0 in CLR
11:40 67.6 °F 43.7 °F 30.3 in WSW 2 mph 4.6 mph 42% 0 in CLR
11:45 67.8 °F 43.2 °F 30.3 in WNW 2 mph 5.8 mph 41% 0 in CLR
11:50 67.6 °F 43.2 °F 30.3 in WNW 2.9 mph 4.6 mph 41% 0 in CLR
11:55 67.5 °F 43 °F 30.3 in West 2.9 mph 4.7 mph 41% 0 in CLR
12:00 67.5 °F 43 °F 30.3 in NW 3 mph 5 mph 41% 0 in CLR
12:05 67.8 °F 43.2 °F 30.3 in WNW 3.1 mph 4.6 mph 41% 0 in CLR
12:10 68.2 °F 43.5 °F 30.3 in WNW 3.1 mph 2.3 mph 41% 0 in CLR
12:15 68.9 °F 44.2 °F 30.3 in East 3.1 mph 3.6 mph 41% 0 in CLR
12:20 69.4 °F 44.1 °F 30.3 in ESE 1.8 mph 4.6 mph 40% 0 in CLR
12:25 69.4 °F 44.1 °F 30.3 in East 1.8 mph 9.2 mph 40% 0 in CLR
12:30 69.6 °F 44.2 °F 30.3 in ENE 4 mph 6.9 mph 40% 0 in CLR
12:35 69.6 °F 44.2 °F 30.3 in ENE 4 mph 10.4 mph 40% 0 in CLR
12:40 69.6 °F 44.2 °F 30.3 in East 5.4 mph 6.9 mph 40% 0 in CLR
12:45 69.4 °F 44.8 °F 30.3 in NE 5.4 mph 9.2 mph 41% 0 in CLR
12:50 69.4 °F 44.1 °F 30.3 in NE 6.2 mph 7.4 mph 40% 0 in CLR
12:55 69.8 °F 43.7 °F 30.3 in NE 6.2 mph 10.4 mph 39% 0 in CLR
13:00 70.2 °F 43.3 °F 30.3 in ENE 6 mph 12 mph 38% 0 in CLR
13:05 70 °F 44.4 °F 30.3 in NNW 5.9 mph 9.2 mph 40% 0 in CLR
13:10 70.2 °F 44.8 °F 30.3 in NE 6.2 mph 10.4 mph 40% 0 in CLR
13:15 70.2 °F 44.8 °F 30.3 in NE 6.2 mph 12.7 mph 40% 0 in CLR
13:20 70.2 °F 44.8 °F 30.3 in NE 5.9 mph 12.7 mph 40% 0 in CLR
13:25 70.5 °F 45 °F 30.3 in ENE 5.9 mph 5.2 mph 40% 0 in CLR
13:30 70.9 °F 45.3 °F 30.3 in NE 5.4 mph 6.9 mph 40% 0 in CLR
13:35 71.2 °F 45 °F 30.3 in ESE 5.4 mph 8.1 mph 39% 0 in CLR
13:40 71.4 °F 45.1 °F 30.3 in ENE 4.7 mph 11.5 mph 39% 0 in CLR
13:45 71.4 °F 45.9 °F 30.3 in ENE 4.7 mph 12.5 mph 40% 0 in CLR
13:50 71.2 °F 45 °F 30.2 in NNE 6.9 mph 12.7 mph 39% 0 in CLR
13:55 71.4 °F 46.6 °F 30.2 in NE 6.9 mph 10.4 mph 41% 0 in CLR
14:00 71.4 °F 45.9 °F 30.2 in NE 7 mph 12 mph 40% 0 in CLR
14:05 71.4 °F 45.9 °F 30.2 in NE 6.4 mph 10.4 mph 40% 0 in CLR
14:10 71.4 °F 46.6 °F 30.2 in NNE 5.4 mph 6.9 mph 41% 0 in CLR
14:15 71.6 °F 46.6 °F 30.2 in ENE 5.4 mph 12.5 mph 41% 0 in CLR
14:20 72 °F 46.2 °F 30.2 in NNE 6.9 mph 9.2 mph 40% 0 in CLR
14:25 72 °F 45.7 °F 30.2 in NE 6.9 mph 6.9 mph 39% 0 in CLR
14:30 72 °F 45.7 °F 30.2 in NE 6.2 mph 12.7 mph 39% 0 in CLR
14:35 72 °F 45.7 °F 30.2 in East 6.2 mph 11.5 mph 39% 0 in CLR
14:40 72.3 °F 46.6 °F 30.2 in ESE 6.9 mph 11.2 mph 40% 0 in CLR
14:45 72.7 °F 46.2 °F 30.2 in NNE 6.9 mph 11.5 mph 39% 0 in CLR
14:50 72.5 °F 46 °F 30.2 in WNW 6.2 mph 8.1 mph 39% 0 in CLR
14:55 72.7 °F 46.9 °F 30.2 in NNE 6.2 mph 10.4 mph 40% 0 in CLR
15:00 72.9 °F 47.1 °F 30.2 in NE 6 mph 14 mph 40% 0 in CLR
15:05 73 °F 47.3 °F 30.2 in NE 5.9 mph 10.4 mph 40% 0 in CLR
15:10 72.9 °F 47.1 °F 30.2 in NE 7.6 mph 13 mph 40% 0 in CLR
15:15 72.3 °F 46 °F 30.2 in NE 7.6 mph 12.7 mph 39% 0 in CLR
15:20 72.5 °F 46.8 °F 30.2 in ENE 8.7 mph 11.5 mph 40% 0 in CLR
15:25 72.7 °F 46.2 °F 30.2 in ENE 8.7 mph 11.5 mph 39% 0 in CLR
15:30 72.7 °F 46.2 °F 30.2 in ENE 7.4 mph 6.9 mph 39% 0 in CLR
15:35 72.7 °F 46.2 °F 30.2 in ENE 7.4 mph 13.8 mph 39% 0 in CLR
15:40 72.7 °F 46.9 °F 30.2 in East 8.1 mph 11.5 mph 40% 0 in CLR
15:45 72.7 °F 47.7 °F 30.2 in East 8.1 mph 13.8 mph 41% 0 in CLR
15:50 72.7 °F 47.7 °F 30.2 in West 8.7 mph 11.5 mph 41% 0 in CLR
15:55 72.7 °F 46.9 °F 30.2 in NE 8.7 mph 9.2 mph 40% 0 in CLR
16:00 72.9 °F 47.8 °F 30.2 in NE 8 mph 14 mph 41% 0 in CLR
16:05 72.9 °F 46.4 °F 30.2 in NE 8.5 mph 13.8 mph 39% 0 in CLR
16:10 72.7 °F 47.7 °F 30.2 in ENE 8.1 mph 16.1 mph 41% 0 in CLR
16:15 72.3 °F 46.6 °F 30.2 in NE 8.1 mph 13.8 mph 40% 0 in CLR
16:20 72.1 °F 46.6 °F 30.2 in NE 9.7 mph 10.4 mph 40% 0 in CLR
16:25 72.3 °F 46.6 °F 30.2 in ENE 9.7 mph 10.4 mph 40% 0 in CLR
16:30 72.9 °F 47.1 °F 30.2 in NE 6.4 mph 9.2 mph 40% 0 in CLR
16:35 73 °F 47.3 °F 30.2 in East 6.4 mph 12.7 mph 40% 0 in CLR
16:40 72.9 °F 46.4 °F 30.2 in NE 7.4 mph 9.2 mph 39% 0 in CLR
16:45 73 °F 46.6 °F 30.2 in ESE 7.4 mph 11.2 mph 39% 0 in CLR
16:50 73 °F 46.6 °F 30.2 in ENE 7.6 mph 8.1 mph 39% 0 in CLR
16:55 73.6 °F 47.1 °F 30.2 in ENE 7.6 mph 17.3 mph 39% 0 in CLR
17:00 73.6 °F 47.1 °F 30.2 in ENE 6 mph 16 mph 39% 0 in CLR
17:05 73 °F 46.6 °F 30.2 in ESE 5.9 mph 17.3 mph 39% 0 in CLR
17:10 72.5 °F 46.8 °F 30.2 in SE 8.5 mph 11.5 mph 40% 0 in CLR
17:15 72.5 °F 46 °F 30.2 in SE 8.5 mph 15 mph 39% 0 in CLR
17:20 72.3 °F 46 °F 30.2 in SE 9.2 mph 12.7 mph 39% 0 in CLR
17:25 72.7 °F 45.7 °F 30.2 in SSE 9.2 mph 12.3 mph 38% 0 in CLR
17:30 72.9 °F 45.9 °F 30.2 in SE 8.5 mph 12.7 mph 38% 0 in CLR
17:35 72.9 °F 45.9 °F 30.2 in ESE 8.5 mph 12.7 mph 38% 0 in CLR
17:40 72.9 °F 45.1 °F 30.2 in East 8.1 mph 11.5 mph 37% 0 in CLR
17:45 72.9 °F 45.9 °F 30.2 in ESE 8.1 mph 15 mph 38% 0 in CLR
17:50 72.9 °F 45.1 °F 30.2 in SE 8.1 mph 13.8 mph 37% 0 in CLR
17:55 72.7 °F 45 °F 30.2 in SSE 8.1 mph 12.7 mph 37% 0 in CLR
18:00 72.7 °F 45.7 °F 30.2 in SE 8 mph 14 mph 38% 0 in CLR
18:05 72.7 °F 45.7 °F 30.2 in SE 8.5 mph 11.5 mph 38% 0 in CLR
18:10 72.9 °F 45.9 °F 30.2 in SSE 8.1 mph 13.8 mph 38% 0 in CLR
18:15 72.7 °F 45.7 °F 30.2 in ESE 8.1 mph 10.4 mph 38% 0 in CLR
18:20 72.9 °F 45.9 °F 30.2 in SE 7.4 mph 16.1 mph 38% 0 in CLR
18:25 72.1 °F 45.9 °F 30.2 in SE 7.4 mph 12.7 mph 39% 0 in CLR
18:30 72 °F 45.7 °F 30.2 in SE 9.7 mph 10.4 mph 39% 0 in CLR
18:35 72.3 °F 46 °F 30.2 in ESE 9.7 mph 11.5 mph 39% 0 in CLR
18:40 72.7 °F 46.2 °F 30.2 in SSE 6.4 mph 10.4 mph 39% 0 in CLR
18:45 72.3 °F 46 °F 30.2 in SSE 6.4 mph 10.4 mph 39% 0 in CLR
18:50 72.1 °F 45.9 °F 30.2 in SSE 8.1 mph 12.7 mph 39% 0 in CLR
18:55 72 °F 46.2 °F 30.2 in SSE 8.1 mph 12.7 mph 40% 0 in CLR
19:00 71.8 °F 46.2 °F 30.2 in SE 8 mph 13 mph 40% 0 in CLR
19:05 72 °F 46.2 °F 30.2 in SE 8.5 mph 10.4 mph 40% 0 in CLR
19:10 71.8 °F 46.8 °F 30.2 in ESE 6.9 mph 11.5 mph 41% 0 in CLR
19:15 71.8 °F 46.8 °F 30.2 in East 6.9 mph 9.2 mph 41% 0 in CLR
19:20 71.8 °F 46.2 °F 30.2 in SE 6.4 mph 11.5 mph 40% 0 in CLR
19:25 71.8 °F 47.5 °F 30.2 in ESE 6.4 mph 9.2 mph 42% 0 in CLR
19:30 71.4 °F 47.1 °F 30.2 in East 6.4 mph 9.2 mph 42% 0 in CLR
19:35 71.1 °F 46.8 °F 30.2 in ESE 6.4 mph 11.5 mph 42% 0 in CLR
19:40 71.1 °F 46.8 °F 30.2 in SE 7.4 mph 8.1 mph 42% 0 in CLR
19:45 71.1 °F 47.5 °F 30.2 in ESE 7.4 mph 9.7 mph 43% 0 in CLR
19:50 70.9 °F 47.3 °F 30.2 in SE 6.2 mph 12.7 mph 43% 0 in CLR
19:55 70.3 °F 48 °F 30.2 in SE 6.2 mph 10.4 mph 45% 0 in CLR
20:00 70.3 °F 48 °F 30.2 in ESE 7 mph 10 mph 45% 0 in CLR
20:05 70.3 °F 48.6 °F 30.2 in ESE 6.9 mph 10.2 mph 46% 0 in CLR
20:10 70 °F 48.7 °F 30.2 in SE 5.9 mph 10.4 mph 47% 0 in CLR
20:15 69.6 °F 49.1 °F 30.2 in East 5.9 mph 8.1 mph 48% 0 in CLR
20:20 69.3 °F 49.3 °F 30.2 in ESE 5.2 mph 6.9 mph 49% 0 in CLR
20:25 68.7 °F 48.7 °F 30.2 in East 5.2 mph 8.1 mph 49% 0 in CLR
20:30 68.5 °F 49.3 °F 30.2 in North 5.2 mph 5.8 mph 50% 0 in CLR
20:35 68.4 °F 49.5 °F 30.2 in NE 5.2 mph 5.9 mph 51% 0 in CLR
20:40 68.2 °F 50.4 °F 30.2 in NE 5.2 mph 6.9 mph 53% 0 in CLR
20:45 67.3 °F 50.5 °F 30.2 in NE 5.2 mph 10.4 mph 55% 0 in CLR
20:50 66.7 °F 50.2 °F 30.2 in NNE 7.4 mph 8.1 mph 55% 0 in CLR
20:55 66.4 °F 50.2 °F 30.2 in NNW 7.4 mph 6.9 mph 56% 0 in CLR
21:00 66 °F 50.4 °F 30.2 in NE 6 mph 12 mph 57% 0 in CLR
21:05 65.7 °F 50 °F 30.2 in NE 6.2 mph 11.5 mph 57% 0 in CLR
21:10 65.1 °F 50 °F 30.2 in NNE 6.9 mph 9.2 mph 58% 0 in CLR
21:15 64.9 °F 50.4 °F 30.2 in NNE 6.9 mph 11.5 mph 59% 0 in CLR
21:20 64.6 °F 49.8 °F 30.2 in NE 6.4 mph 10.4 mph 59% 0 in CLR
21:25 64.2 °F 50 °F 30.2 in NE 6.4 mph 10.4 mph 60% 0 in CLR
21:30 64 °F 49.8 °F 30.2 in NE 7.4 mph 10.4 mph 60% 0 in CLR
21:35 63.7 °F 50 °F 30.2 in NE 7.4 mph 15 mph 61% 0 in CLR
21:40 63.3 °F 50.2 °F 30.2 in NE 8.1 mph 11.8 mph 62% 0 in CLR
21:45 63.1 °F 50.4 °F 30.2 in NE 8.1 mph 9.2 mph 63% 0 in CLR
21:50 62.8 °F 50.4 °F 30.2 in NE 6.9 mph 8.5 mph 64% 0 in CLR
21:55 62.4 °F 50.5 °F 30.2 in North 6.9 mph 9.2 mph 65% 0 in CLR
22:00 62.2 °F 50.7 °F 30.2 in NE 6 mph 10 mph 66% 0 in CLR
22:05 62.1 °F 51.1 °F 30.2 in NE 6.2 mph 10.4 mph 67% 0 in CLR
22:10 61.9 °F 50.7 °F 30.2 in NE 5.9 mph 5.8 mph 67% 0 in CLR
22:15 61.5 °F 50.9 °F 30.2 in NE 5.9 mph 8.1 mph 68% 0 in CLR
22:20 61.5 °F 50.9 °F 30.2 in NE 5.2 mph 9.2 mph 68% 0 in CLR
22:25 61.3 °F 51.1 °F 30.2 in NE 5.2 mph 6.9 mph 69% 0 in CLR
22:30 61.2 °F 50.9 °F 30.2 in NE 5.2 mph 9.2 mph 69% 0 in CLR
22:35 60.8 °F 51.1 °F 30.2 in NE 5.2 mph 8.1 mph 70% 0 in CLR
22:40 60.6 °F 51.3 °F 30.2 in NNE 5.9 mph 6.9 mph 71% 0 in CLR
22:45 60.4 °F 51.1 °F 30.2 in NE 5.9 mph 8.1 mph 71% 0 in CLR
22:50 60.4 °F 51.1 °F 30.2 in NNE 5.4 mph 6.9 mph 71% 0 in CLR
22:55 60.3 °F 50.7 °F 30.2 in NE 5.4 mph 8.1 mph 71% 0 in CLR
23:00 60.3 °F 50.7 °F 30.2 in NE 6 mph 10 mph 71% 0 in CLR
23:05 60.1 °F 51.1 °F 30.2 in NNE 5.4 mph 6.9 mph 72% 0 in CLR
23:10 59.7 °F 50.7 °F 30.2 in NNE 5.9 mph 6.9 mph 72% 0 in CLR
23:15 59.7 °F 50.7 °F 30.2 in NE 5.9 mph 6.9 mph 72% 0 in CLR
23:20 59.7 °F 50.4 °F 30.2 in NE 5.4 mph 6.9 mph 71% 0 in CLR
23:25 59.7 °F 49.8 °F 30.2 in NE 5.4 mph 6.9 mph 70% 0 in CLR
23:30 59.7 °F 49.8 °F 30.2 in NE 4.7 mph 6.9 mph 70% 0 in CLR
23:35 59.7 °F 50.4 °F 30.2 in NNE 4.7 mph 5.9 mph 71% 0 in CLR
23:40 59.7 °F 50.4 °F 30.2 in NE 4.7 mph 5.8 mph 71% 0 in CLR
23:45 59.5 °F 50.2 °F 30.2 in NE 4.7 mph 6.2 mph 71% 0 in CLR
23:50 59.4 °F 50.4 °F 30.2 in NE 4.3 mph 6.9 mph 72% 0 in CLR
23:55 59.2 °F 50.2 °F 30.2 in NE 4.3 mph 6.9 mph 72% 0 in CLR
Murcia-Puente Tocinos, España
Compliments of Weather Underground - 2.75 mb

La estación de MeteoMurcia.com, publica sus datos en los siguientes proyectos:

Weather Underground PWS IMURCIAP2 Meteoclimatic www.awekas.at

W3Counter
Web Analytics